PICO-02D024

operational
NORAD ID: 60569 Int'l Des: 2024-149 Owner: APOGEO Country: I
LEOCIRCULARRETROGRADESSO

PICO-02D024について

説明を読み込み中...

リアルタイム位置

3D地球を読み込み中...

次回通過

高度履歴

Altitude vs Time

uPlot chart will show altitude changes over time

軌道要素

1 60569U 24149DF 25341.24757349 .00227291 00000-0 41791-2 0 9999
2 60569 97.6976 69.2520 0002810 286.2360 73.8580 15.48363627 72212
Epoch: Dec 7, 2025 • Age: 16 hours

現在のステータス

高度 423.0 km
速度 7.66 km/s
衛星直下点 12.92°N, 28.68°E
打ち上げ日 Aug 16, 2024
運用期間 1.3 years
タイプ other

技術仕様

分類 Payload
質量 0.50 kg
乾燥質量 0.50 kg
総質量 0.50 kg
長さ 0.03 m
直径 0.10 m
スパン 0.10 m
形状 Box
製造者 APOGEO
バスタイプ Cubesat 0.3U
フェーズステータス In Orbit
所有者/国 APOGEO/I

大規模コンステレーション

Loading constellations...